Location: Austin
(30.3000°N, 97.7500°W)
Time: 03:15:08
(UTC-05:00)

Cosmos 1666 Rocket - Pass Details

Date: 01 October 2024
Orbit: 599 x 629 km, 82.5° (Epoch: 06 October)

Event Time Altitude Azimuth Distance (km) Brightness Sun altitude
Rises 19:46:14 0° 174° (S) 2,852 6.9 -7.4°
Reaches altitude 10° 19:48:29 10° 169° (S) 1,947 6.0 -7.9°
Maximum altitude 19:52:39 52° 93° (E) 747 3.6 -8.8°
Drops below altitude 10° 19:56:50 10° 17° (NNE) 1,945 6.0 -9.7°
Sets 19:59:05 0° 13° (NNE) 2,849 6.9 -10.2°
